sat.trackr.live / text

‹ back to catalog

STARLINK-32327

NORAD 61641 · 2024-191W

PAYLOAD ACTIVE UNKNOWN

§ Identity

Operator
Country
US
Launch date
2024-10-23
Launch site
AFETR
Launch vehicle
Mass (kg)
RCS (m²)

Purposes: comms

External: N2YO · Heavens-Above · Gunter

§ Orbital elements

Epoch: 2026-05-25T03:51:00.797760Z

Period
94.27 min
Inclination
43.0017°
Eccentricity
0.0000884
Mean motion
15.27601046 rev/d
Perigee alt
482.4 km
Apogee alt
483.6 km
Semi-major
6,861.1 km
B*
-1.0652e-4
RAAN
82.4580°
Arg perigee
239.5878°
Mean anomaly
120.4887°
Rev number
8,923

§ Raw data

STARLINK-323271 61641U 24191W   26145.16042590 -.00003194  00000+0 -10652-3 0  99952 61641  43.0017  82.4580 0000884 239.5878 120.4887 15.27601046 89238

JSON: /api/v1/satellites/61641 · /tle

For live sub-satellite position, see the globe view (requires WebGL).

§ Visibility from observer

Set your observer location to see the next 7 days of passes ≥ 10°. The values pass through the URL so the page stays shareable.

No JS? Fill the form by hand. The geolocation button needs JavaScript.